Location: Mount Hamilton
(37.3433°N, 121.6347°W)
Time: 03:52:47
(UTC-08:00)

Amateur Radio Satellites - All Passes

Search period start: 20 November 2017 03:22
Search period end: 21 November 2017 03:22
Location: Mount Hamilton, 37.3433°N, 121.6347°W

Satellite Date Start Highest point End Downlink Frequencies (MHz)
Time Altitude Azimuth
MOZHAYETS 4 20 Nov 03:23:06 03:27:00 28° 264° (W) 03:30:55
CUBESAT XI-V 20 Nov 03:30:19 03:34:52 74° 76° (ENE) 03:39:29 437.345
BEESAT 3 20 Nov 03:35:16 03:38:52 32° 306° (NW) 03:42:29 437.485
M-CUBED/EXP-1 PRIME 20 Nov 03:45:36 03:49:34 30° 294° (WNW) 03:53:36 437.505
KKS-1 20 Nov 03:47:26 03:51:07 26° 69° (ENE) 03:54:49 437.445
ISS 20 Nov 04:01:07 04:04:22 67° 40° (NE) 04:07:36 437.550
AO-7 20 Nov 04:03:49 04:12:12 82° 288° (WNW) 04:20:34 .
DOVE 4 20 Nov 04:04:46 04:08:14 18° 91° (E) 04:11:35 437.250
YUBILEINY 20 Nov 04:12:17 04:18:07 20° 80° (E) 04:23:58 435.215
STARS 20 Nov 04:15:43 04:18:58 20° 67° (ENE) 04:22:13 437.465
ITAMSAT 1 20 Nov 04:33:43 04:38:35 42° 290° (WNW) 04:43:26 435.822/435.867
BEESAT 2 20 Nov 04:44:15 04:47:25 22° 310° (NW) 04:50:38 435.950
AO-85 20 Nov 04:56:43 05:00:22 40° 305° (NW) 05:04:11 145.980
nSIGHT-1 20 Nov 04:57:54 05:00:24 21° 229° (SW) 05:02:51 .
XW-2B 20 Nov 05:14:33 05:16:36 14° 93° (E) 05:18:39 145.730 - 145.750
KKS-1 20 Nov 05:23:47 05:27:33 26° 264° (W) 05:31:20 437.445
RS-15 20 Nov 05:32:03 05:42:39 43° 253° (WSW) 05:52:48 29.354- 29.394
NUDT-PHONESAT 20 Nov 05:34:23 05:36:48 17° 94° (E) 05:39:15 437.300
STRAND 1 20 Nov 05:35:06 05:38:21 17° 64° (ENE) 05:41:35 437.568
XW-2C 20 Nov 05:38:57 05:42:18 29° 97° (E) 05:45:39 145.795 - 145.815
LilacSat-2 20 Nov 05:39:21 05:42:49 32° 97° (E) 05:46:18 437.200
ISS 20 Nov 05:39:56 05:40:25 10° 233° (SW) 05:40:52 437.550
DOVE 4 20 Nov 05:41:11 05:46:09 47° 287° (WNW) 05:50:53 437.250
XW-2F 20 Nov 05:50:36 05:54:09 38° 98° (E) 05:57:43 145.980 - 146.000
STARS 20 Nov 05:51:02 05:55:02 33° 262° (W) 05:59:04 437.465
CUTE-I 20 Nov 05:57:03 06:02:06 40° 99° (E) 06:07:04 437.470
AO-7 20 Nov 05:58:42 06:03:42 18° 308° (NW) 06:08:43 .
YUBILEINY 20 Nov 06:05:07 06:13:51 76° 278° (W) 06:22:42 435.215
KAITUO 1B 20 Nov 06:20:21 06:24:08 75° 102° (ESE) 06:27:53 145.475/437.950
SO-50 20 Nov 06:31:57 06:36:21 41° 54° (NE) 06:40:48 436.795
XW-2D 20 Nov 06:32:25 06:36:06 49° 285° (WNW) 06:39:47 145.860 - 145.880
XW-2B 20 Nov 06:47:24 06:50:51 33° 287° (WNW) 06:54:18 145.730 - 145.750
CUTE 1.7 + AOD 2 20 Nov 06:51:45 06:55:54 49° 99° (E) 07:00:02 437.475
UWE-3 20 Nov 07:00:18 07:03:08 18° 94° (E) 07:05:57 435.000/436.395/437.385
NUDT-PHONESAT 20 Nov 07:07:30 07:10:39 26° 288° (WNW) 07:13:47 437.300
HO-68 20 Nov 07:09:53 07:17:04 70° 103° (ESE) 07:24:12 435.675
STRAND 1 20 Nov 07:12:00 07:17:02 55° 259° (W) 07:22:06 437.568
XW-2A 20 Nov 07:13:42 07:16:18 21° 96° (E) 07:18:54 145.665 - 145.685
XW-2C 20 Nov 07:13:47 07:16:13 17° 291° (WNW) 07:18:39 145.795 - 145.815
FO-29 20 Nov 07:14:20 07:20:20 41° 67° (ENE) 07:27:02 435.910
LilacSat-2 20 Nov 07:14:30 07:16:48 15° 292° (WNW) 07:19:05 437.200
SEEDS 20 Nov 07:24:21 07:28:36 73° 101° (ESE) 07:32:50 437.485
XW-2F 20 Nov 07:26:08 07:27:53 13° 293° (WNW) 07:29:39 145.980 - 146.000
AAUSAT CUBESAT 2 20 Nov 07:34:43 07:38:39 38° 98° (E) 07:42:32 437.432
CUBEBUG 2 20 Nov 07:36:28 07:40:39 86° 281° (WNW) 07:44:47 437.445
CUTE-I 20 Nov 07:37:38 07:41:51 24° 294° (WNW) 07:46:04 437.470
AO-73 20 Nov 07:44:18 07:47:46 26° 96° (E) 07:51:16 145.935
Oscar 11 20 Nov 08:01:52 08:05:36 28° 96° (E) 08:09:20 .
YUBILEINY 20 Nov 08:08:20 08:12:14 13° 299° (WNW) 08:16:10 435.215
SO-50 20 Nov 08:13:05 08:16:32 21° 249° (WSW) 08:20:00 436.795
PCSat 20 Nov 08:13:52 08:16:40 14° 45° (NE) 08:19:27 145.827
ZACube-1 20 Nov 08:28:13 08:32:21 78° 283° (WNW) 08:36:31 437.345
CUTE 1.7 + AOD 2 20 Nov 08:29:16 08:31:16 13° 294° (WNW) 08:33:16 437.475
UWE-3 20 Nov 08:35:58 08:39:38 31° 288° (WNW) 08:43:16 435.000/436.395/437.385
FALCONSAT 3 20 Nov 08:36:34 08:36:47 10° 149° (SSE) 08:36:58 435.103
XW-2A 20 Nov 08:46:35 08:48:50 17° 290° (WNW) 08:51:05 145.665 - 145.685
PRISM 20 Nov 08:53:42 08:56:29 18° 67° (ENE) 08:59:19 437.425
HO-68 20 Nov 08:58:56 09:04:06 22° 301° (WNW) 09:09:14 435.675
FO-29 20 Nov 08:59:39 09:05:23 34° 266° (W) 09:11:48 435.910
UNISAT 6 20 Nov 09:09:39 09:14:15 86° 81° (E) 09:18:47 437.425
AAUSAT CUBESAT 2 20 Nov 09:11:11 09:13:45 16° 293° (WNW) 09:16:17 437.432
TIGRISAT 20 Nov 09:14:17 09:18:54 88° 75° (ENE) 09:23:25 435.000
AO-73 20 Nov 09:20:40 09:23:52 22° 290° (WNW) 09:27:04 145.935
Max Valier Satellite 20 Nov 09:33:51 09:37:21 42° 99° (E) 09:40:51 145.860
EO-88 20 Nov 09:34:46 09:37:59 29° 97° (E) 09:41:11 145.990 - 145.960
Oscar 11 20 Nov 09:38:12 09:41:33 22° 291° (WNW) 09:44:55 .
AIST 2D 20 Nov 09:45:48 09:48:00 16° 70° (ENE) 09:50:13 435.315
DELFI C3 20 Nov 09:49:45 09:53:45 77° 284° (WNW) 09:57:43 145.870
PCSat 20 Nov 09:55:21 10:00:48 90° 246° (WSW) 10:06:13 145.827
FALCONSAT 3 20 Nov 10:11:54 10:15:17 34° 162° (SSE) 10:18:40 435.103
PRISM 20 Nov 10:27:47 10:31:29 32° 262° (W) 10:35:14 437.425
DUCHIFAT 1 20 Nov 10:40:12 10:43:30 23° 69° (ENE) 10:46:47 145.980
ESTCUBE 1 20 Nov 10:41:29 10:44:42 19° 94° (E) 10:47:54 437.505/2401.250
EO-79 20 Nov 10:45:44 10:49:34 34° 72° (ENE) 10:53:25 145.935-145.965
NANOSAT C BR1 20 Nov 10:49:39 10:53:27 33° 71° (ENE) 10:57:15 145.865
POLYITAN 1 20 Nov 11:00:28 11:04:35 51° 74° (ENE) 11:08:42 437.675
EO-88 20 Nov 11:09:10 11:11:21 15° 291° (WNW) 11:13:31 145.990 - 145.960
Max Valier Satellite 20 Nov 11:09:46 11:10:45 11° 293° (WNW) 11:11:44 145.860
AIST 2D 20 Nov 11:18:08 11:20:58 23° 264° (W) 11:23:47 435.315
QB50P2 20 Nov 11:23:34 11:27:48 74° 257° (WSW) 11:32:03 145.880/145.840
BEESAT 2 20 Nov 11:26:45 11:28:20 12° 45° (NE) 11:29:53 435.950
LO-87 20 Nov 11:35:18 11:38:47 59° 284° (WNW) 11:42:14 145.935 - 145.965
BUGSAT 1 20 Nov 11:36:16 11:39:35 23° 70° (ENE) 11:42:55 437.445
AO-85 20 Nov 11:50:13 11:52:05 12° 44° (NE) 11:54:01 145.980
FALCONSAT 3 20 Nov 11:50:29 11:54:09 64° 177° (S) 11:57:49 435.103
BEESAT 3 20 Nov 11:53:09 11:57:06 72° 60° (ENE) 12:00:56 437.485
SPROUT 20 Nov 12:09:25 12:13:26 41° 99° (E) 12:17:25 437.525
DUCHIFAT 1 20 Nov 12:15:26 12:19:00 26° 264° (W) 12:22:34 145.980
ESTCUBE 1 20 Nov 12:17:25 12:21:34 36° 289° (WNW) 12:25:42 437.505/2401.250
Oscar 19 20 Nov 12:19:43 12:24:29 41° 71° (ENE) 12:29:15 437.125/150
EO-79 20 Nov 12:22:32 12:25:23 17° 266° (W) 12:28:14 145.935-145.965
NANOSAT C BR1 20 Nov 12:26:18 12:29:11 18° 266° (W) 12:32:05 145.865
O/OREOS (USA 219) 20 Nov 12:33:59 12:37:27 21° 101° (E) 12:40:56 437.305
Gurwin Techsat 1B 20 Nov 12:38:00 12:43:01 44° 71° (ENE) 12:48:03 435.225
POLYITAN 1 20 Nov 12:39:07 12:40:36 12° 268° (W) 12:42:05 437.675
VELOX 1 20 Nov 12:41:19 12:45:44 59° 101° (E) 12:50:06 145.980
M-CUBED/EXP-1 PRIME 20 Nov 12:56:09 12:58:35 18° 62° (ENE) 13:01:07 437.505
BEESAT 2 20 Nov 13:02:30 13:06:30 69° 243° (WSW) 13:10:26 435.950
AO-7 20 Nov 13:10:19 13:16:33 24° 56° (NE) 13:22:47 .
BUGSAT 1 20 Nov 13:11:17 13:14:47 25° 264° (W) 13:18:17 437.445
AO-85 20 Nov 13:28:20 13:33:06 85° 57° (ENE) 13:38:13 145.980
DX 1 20 Nov 13:29:31 13:33:42 42° 100° (E) 13:37:51 434.975-435.025
FALCONSAT 3 20 Nov 13:29:31 13:33:06 49° 192° (SSW) 13:36:41 435.103
50 SAT 20 Nov 13:37:04 13:40:17 66° 101° (ESE) 13:43:27 437.505
SPROUT 20 Nov 13:46:28 13:48:57 15° 294° (WNW) 13:51:26 437.525
Oscar 19 20 Nov 14:00:07 14:03:55 21° 266° (W) 14:07:44 437.125/150
ITAMSAT 1 20 Nov 14:10:54 14:15:16 28° 67° (ENE) 14:19:39 435.822/435.867
O/OREOS (USA 219) 20 Nov 14:12:28 14:16:37 33° 297° (WNW) 14:20:47 437.305
UKube-1 20 Nov 14:13:09 14:17:29 85° 100° (E) 14:21:48 .
Gurwin Techsat 1B 20 Nov 14:19:12 14:23:06 21° 266° (W) 14:27:02 435.225
NO-84 20 Nov 14:19:25 14:22:24 25° 125° (SE) 14:25:35 435.350 FM
VELOX 1 20 Nov 14:19:51 14:21:37 12° 296° (WNW) 14:23:23 145.980
M-CUBED/EXP-1 PRIME 20 Nov 14:29:50 14:32:46 25° 260° (W) 14:35:54 437.505
BEESAT 20 Nov 14:51:00 14:55:02 27° 96° (E) 14:59:03 436.000
ITUPSAT 1 20 Nov 14:59:59 15:04:16 33° 97° (E) 15:08:33 437.325
AO-7 20 Nov 15:00:15 15:08:30 74° 255° (WSW) 15:16:49 .
JUGNU 20 Nov 15:05:42 15:07:21 11° 171° (S) 15:08:59 437.505
DX 1 20 Nov 15:06:50 15:09:29 16° 295° (WNW) 15:12:08 434.975-435.025
DOVE 4 20 Nov 15:08:18 15:11:12 16° 63° (ENE) 15:14:10 437.250
FALCONSAT 3 20 Nov 15:09:12 15:11:47 18° 206° (SSW) 15:14:22 435.103
AO-85 20 Nov 15:12:18 15:12:59 10° 253° (WSW) 15:13:40 145.980
MOZHAYETS 4 20 Nov 15:19:06 15:23:40 78° 101° (E) 15:28:14
CUBESAT XI-V 20 Nov 15:29:26 15:33:02 21° 94° (E) 15:36:37 437.345
ITAMSAT 1 20 Nov 15:49:54 15:54:34 33° 263° (W) 15:59:16 435.822/435.867
NO-84 20 Nov 15:56:14 15:59:35 32° 323° (NW) 16:03:12 435.350 FM
YUBILEINY 20 Nov 16:18:00 16:26:34 50° 77° (ENE) 16:35:02 435.215
XW-2C 20 Nov 16:20:14 16:21:21 11° 66° (ENE) 16:22:27 145.795 - 145.815
LilacSat-2 20 Nov 16:20:50 16:22:28 12° 67° (ENE) 16:24:06 437.200
BEESAT 20 Nov 16:28:42 16:32:42 28° 291° (WNW) 16:36:42 436.000
XW-2F 20 Nov 16:30:37 16:32:35 14° 68° (ENE) 16:34:35 145.980 - 146.000
ITUPSAT 1 20 Nov 16:38:10 16:41:53 23° 293° (WNW) 16:45:36 437.325
DOVE 4 20 Nov 16:43:21 16:48:14 61° 260° (W) 16:53:24 437.250
JUGNU 20 Nov 16:52:46 16:55:29 13° 181° (S) 16:58:12 437.505
KAITUO 1B 20 Nov 16:58:30 17:01:28 23° 71° (ENE) 17:04:26 145.475/437.950
AO-7 20 Nov 17:00:10 17:02:28 11° 271° (W) 17:04:46 .
CUBESAT XI-V 20 Nov 17:06:12 17:10:25 34° 289° (WNW) 17:14:38 437.345
XW-2D 20 Nov 17:11:04 17:14:42 52° 75° (ENE) 17:18:20 145.860 - 145.880
KKS-1 20 Nov 17:15:44 17:20:11 66° 101° (ESE) 17:24:36 437.445
CUTE-I 20 Nov 17:16:39 17:21:51 54° 72° (ENE) 17:27:04 437.470
XW-2B 20 Nov 17:25:46 17:29:29 80° 78° (ENE) 17:33:14 145.730 - 145.750
HO-68 20 Nov 17:36:12 17:42:49 42° 66° (ENE) 17:49:29 435.675
RS-15 20 Nov 17:38:58 17:50:01 42° 107° (ESE) 18:01:04 29.354- 29.394
STARS 20 Nov 17:41:49 17:46:04 48° 100° (E) 17:50:17 437.465
CUTE 1.7 + AOD 2 20 Nov 17:42:32 17:46:02 26° 70° (ENE) 17:49:34 437.475
NUDT-PHONESAT 20 Nov 17:43:26 17:47:04 88° 254° (WSW) 17:50:44 437.300
XW-2C 20 Nov 17:51:32 17:55:05 43° 261° (W) 17:58:40 145.795 - 145.815
LilacSat-2 20 Nov 17:52:50 17:56:21 38° 262° (W) 17:59:53 437.200
UWE-3 20 Nov 17:56:13 17:58:15 13° 66° (ENE) 18:00:15 435.000/436.395/437.385
XW-2F 20 Nov 18:03:01 18:06:22 33° 262° (W) 18:09:46 145.980 - 146.000
SEEDS 20 Nov 18:13:49 18:17:36 36° 72° (ENE) 18:21:26 437.485
YUBILEINY 20 Nov 18:15:24 18:22:57 33° 275° (W) 18:30:28 435.215
AAUSAT CUBESAT 2 20 Nov 18:23:16 18:26:14 19° 69° (ENE) 18:29:12 437.432
CUBEBUG 2 20 Nov 18:31:40 18:36:13 59° 76° (ENE) 18:40:39 437.445
KAITUO 1B 20 Nov 18:32:47 18:35:22 18° 265° (W) 18:38:00 145.475/437.950
SRMSAT 20 Nov 18:36:12 18:38:45 13° 174° (S) 18:41:18 437.500
AO-73 20 Nov 18:38:24 18:41:09 17° 68° (ENE) 18:43:53 145.935
KKS-1 20 Nov 18:54:53 18:56:08 11° 297° (WNW) 18:57:23 437.445
Oscar 11 20 Nov 18:55:21 18:58:10 17° 67° (ENE) 19:01:00 .
CUTE-I 20 Nov 18:58:44 19:02:10 17° 267° (W) 19:05:38 437.470
XW-2A 20 Nov 19:14:10 19:17:29 78° 259° (W) 19:20:48 145.665 - 145.685
CUTE 1.7 + AOD 2 20 Nov 19:18:32 19:21:48 22° 265° (W) 19:25:06 437.475
STARS 20 Nov 19:19:38 19:21:57 14° 295° (WNW) 19:24:16 437.465
ZACube-1 20 Nov 19:21:24 19:25:41 60° 75° (ENE) 19:29:54 437.345
HO-68 20 Nov 19:24:08 19:30:33 35° 263° (W) 19:37:00 435.675
STRAND 1 20 Nov 19:24:26 19:29:30 60° 101° (E) 19:34:31 437.568
UWE-3 20 Nov 19:29:50 19:34:14 54° 260° (W) 19:38:32 435.000/436.395/437.385
RS-15 20 Nov 19:49:59 20:02:04 59° 307° (NW) 20:14:10 29.354- 29.394
SEEDS 20 Nov 19:50:50 19:53:23 16° 267° (W) 19:55:57 437.485
nSIGHT-1 20 Nov 19:57:19 20:00:05 27° 133° (SE) 20:02:52 .
AAUSAT CUBESAT 2 20 Nov 19:57:51 20:01:27 29° 264° (W) 20:05:05 437.432
FO-29 20 Nov 20:10:23 20:17:53 47° 97° (E) 20:24:52 435.910
CUBEBUG 2 20 Nov 20:11:32 20:13:06 12° 269° (W) 20:14:39 437.445
Max Valier Satellite 20 Nov 20:11:46 20:13:47 14° 68° (ENE) 20:15:49 145.860
AO-73 20 Nov 20:13:04 20:17:05 37° 262° (W) 20:21:03 145.935
SRMSAT 20 Nov 20:24:20 20:27:04 13° 184° (S) 20:29:48 437.500
Oscar 11 20 Nov 20:30:03 20:34:00 36° 262° (W) 20:37:59 .
DELFI C3 20 Nov 20:32:31 20:36:15 41° 73° (ENE) 20:40:00 145.870
ISS 20 Nov 20:39:17 20:42:32 65° 136° (SE) 20:45:47 437.550
SO-50 20 Nov 20:45:20 20:48:32 20° 110° (ESE) 20:51:45 436.795
NO-84 20 Nov 20:53:53 20:56:18 15° 26° (NNE) 20:58:43 435.350 FM
UNISAT 6 20 Nov 21:04:16 21:07:21 19° 94° (E) 21:10:25 437.425
STRAND 1 20 Nov 21:05:13 21:08:08 15° 297° (WNW) 21:11:01 437.568
TIGRISAT 20 Nov 21:08:43 21:11:49 20° 94° (E) 21:14:55 435.000
nSIGHT-1 20 Nov 21:33:27 21:36:16 27° 328° (NNW) 21:39:06 .
ESTCUBE 1 20 Nov 21:39:58 21:42:18 14° 65° (ENE) 21:44:40 437.505/2401.250
EO-88 20 Nov 21:43:03 21:46:31 46° 261° (W) 21:50:02 145.990 - 145.960
Max Valier Satellite 20 Nov 21:44:03 21:47:18 31° 263° (W) 21:50:35 145.860
FO-29 20 Nov 21:55:40 22:02:34 36° 295° (WNW) 22:09:09 435.910
LO-87 20 Nov 22:08:49 22:12:07 34° 73° (ENE) 22:15:25 145.935 - 145.965
RS-15 20 Nov 22:09:10 22:17:59 22° 336° (NNW) 22:26:41 29.354- 29.394
DELFI C3 20 Nov 22:09:29 22:11:10 12° 268° (W) 22:12:51 145.870
PRISM 20 Nov 22:10:34 22:14:26 36° 98° (E) 22:18:14 437.425
ISS 20 Nov 22:17:02 22:19:17 17° 334° (NNW) 22:21:32 437.550
SO-50 20 Nov 22:24:30 22:28:41 38° 306° (NW) 22:32:54 436.795
NO-84 20 Nov 22:30:05 22:34:21 68° 43° (NE) 22:38:33 435.350 FM
UNISAT 6 20 Nov 22:40:20 22:44:05 30° 289° (WNW) 22:47:48 437.425
AIST 2D 20 Nov 22:44:21 22:47:19 25° 96° (E) 22:50:17 435.315
TIGRISAT 20 Nov 22:44:49 22:48:32 30° 289° (WNW) 22:52:13 435.000
O/OREOS (USA 219) 20 Nov 22:45:11 22:49:11 29° 62° (ENE) 22:53:07 437.305
PCSat 20 Nov 22:54:13 22:57:15 15° 104° (ESE) 23:00:17 145.827
SPROUT 20 Nov 23:00:47 23:04:15 24° 69° (ENE) 23:07:43 437.525
QB50P2 20 Nov 23:11:06 23:14:13 20° 95° (E) 23:17:18 145.880/145.840
ESTCUBE 1 20 Nov 23:14:18 23:18:38 50° 260° (W) 23:23:01 437.505/2401.250
VELOX 1 20 Nov 23:36:16 23:40:23 40° 72° (ENE) 23:44:33 145.980
LO-87 20 Nov 23:44:11 23:45:37 12° 267° (W) 23:47:03 145.935 - 145.965
PRISM 20 Nov 23:46:42 23:49:22 17° 293° (WNW) 23:52:01 437.425
DUCHIFAT 1 21 Nov 00:00:27 00:04:32 52° 100° (E) 00:08:35 145.980
50 SAT 21 Nov 00:03:22 00:05:01 13° 68° (ENE) 00:06:41 437.505
EO-79 21 Nov 00:07:20 00:11:33 86° 101° (E) 00:15:43 145.935-145.965
NO-84 21 Nov 00:08:58 00:11:14 14° 239° (WSW) 00:13:29 435.350 FM
NANOSAT C BR1 21 Nov 00:10:47 00:14:59 83° 105° (ESE) 00:19:08 145.865
AIST 2D 21 Nov 00:18:02 00:20:16 16° 291° (WNW) 00:22:29 435.315
POLYITAN 1 21 Nov 00:22:38 00:26:46 62° 285° (WNW) 00:30:53 437.675
DX 1 21 Nov 00:23:03 00:26:47 29° 70° (ENE) 00:30:35 434.975-435.025
O/OREOS (USA 219) 21 Nov 00:24:49 00:28:24 23° 259° (WSW) 00:31:57 437.305
RS-15 21 Nov 00:29:37 00:37:11 18° 13° (NNE) 00:44:31 29.354- 29.394
Oscar 19 21 Nov 00:34:16 00:37:33 17° 93° (E) 00:40:49 437.125/150
PCSat 21 Nov 00:34:40 00:40:02 64° 299° (WNW) 00:45:26 145.827
SPROUT 21 Nov 00:36:28 00:40:01 25° 264° (W) 00:43:34 437.525
QB50P2 21 Nov 00:46:21 00:49:59 29° 289° (WNW) 00:53:36 145.880/145.840
BUGSAT 1 21 Nov 00:54:10 00:58:05 49° 100° (E) 01:01:57 437.445
Gurwin Techsat 1B 21 Nov 00:57:00 01:00:54 20° 94° (E) 01:04:46 435.225
UKube-1 21 Nov 01:05:08 01:09:20 53° 74° (ENE) 01:13:33 .
VELOX 1 21 Nov 01:14:09 01:16:58 16° 267° (W) 01:19:47 145.980
50 SAT 21 Nov 01:34:08 01:36:51 24° 263° (W) 01:39:34 437.505
DUCHIFAT 1 21 Nov 01:38:08 01:39:42 12° 295° (WNW) 01:41:15 145.980
BEESAT 3 21 Nov 01:41:17 01:44:06 19° 111° (ESE) 01:46:58 437.485
BEESAT 21 Nov 01:55:26 01:59:22 26° 68° (ENE) 02:03:18 436.000
DX 1 21 Nov 01:59:32 02:02:56 22° 265° (W) 02:06:22 434.975-435.025
ITUPSAT 1 21 Nov 02:04:40 02:08:53 32° 69° (ENE) 02:13:05 437.325
M-CUBED/EXP-1 PRIME 21 Nov 02:08:54 02:12:33 23° 100° (E) 02:16:13 437.505
Oscar 19 21 Nov 02:12:08 02:17:07 51° 288° (WNW) 02:22:07 437.125/150
MOZHAYETS 4 21 Nov 02:18:36 02:23:04 57° 74° (ENE) 02:27:33
PCSat 21 Nov 02:23:53 02:24:30 10° 319° (NW) 02:25:07 145.827
nSIGHT-1 21 Nov 02:25:54 02:28:16 19° 28° (NNE) 02:30:39 .
ITAMSAT 1 21 Nov 02:28:43 02:29:19 10° 90° (E) 02:29:55 435.822/435.867
CUBESAT XI-V 21 Nov 02:31:22 02:34:19 17° 66° (ENE) 02:37:17 437.345
BUGSAT 1 21 Nov 02:31:31 02:32:58 12° 295° (WNW) 02:34:23 437.445
Gurwin Techsat 1B 21 Nov 02:35:58 02:41:00 45° 289° (WNW) 02:46:01 435.225
RS-15 21 Nov 02:42:59 02:54:10 43° 46° (NE) 03:04:45 29.354- 29.394
UKube-1 21 Nov 02:44:06 02:45:37 12° 268° (W) 02:47:09 .
BEESAT 2 21 Nov 02:51:26 02:54:59 31° 113° (ESE) 02:58:36 435.950
AO-7 21 Nov 03:04:18 03:12:10 44° 100° (E) 03:20:00 .
ISS 21 Nov 03:08:58 03:12:00 34° 34° (NE) 03:15:01 437.550
